FDX144 KLAX-MMMX

Flight info

Callsign FDX144
Flight time N/A
Altitude 35000
Route PNDAH2 TCATE DCT PPE UJ7 HMO UT18 NABAS UT49 DGO UJ5 ZCL UT130 DARAN DARAN3A
Aircraft B77L/H-SDE1E2E3FGHIJ2J3J4J5M1RWXY/LB1D1

Departure

Time 2026-04-20 03:55
Airport Los Angeles International Airport (KLAX)

Arrival

Time N/A
Airport Mexico City Benito Juárez International Airport (MMMX)
Time Latitude Longitude Altitude Speed Heading
2026-04-20 03:37 33.93390 -118.38977 100 ft 0 kts 180°
2026-04-20 03:45 33.93406 -118.38977 97 ft 2 kts 176°
2026-04-20 03:46 33.93422 -118.38978 99 ft 2 kts 175°
2026-04-20 03:46 33.93438 -118.38980 97 ft 2 kts 173°
2026-04-20 03:46 33.93454 -118.38983 97 ft 2 kts 169°
2026-04-20 03:46 33.93470 -118.38988 97 ft 2 kts 164°
2026-04-20 03:47 33.93486 -118.38994 96 ft 2 kts 158°
2026-04-20 03:47 33.93501 -118.39002 97 ft 2 kts 149°
2026-04-20 03:47 33.93510 -118.39009 97 ft 2 kts 141°
2026-04-20 03:47 33.93522 -118.39022 96 ft 2 kts 126°
2026-04-20 03:48 33.93530 -118.39040 99 ft 2 kts 107°
2026-04-20 03:48 33.93533 -118.39058 97 ft 2 kts 91°
2026-04-20 03:48 33.93533 -118.39066 95 ft 0 kts 86°
2026-04-20 03:49 33.93533 -118.39065 95 ft 2 kts 86°
2026-04-20 03:49 33.93542 -118.38974 98 ft 20 kts 83°
2026-04-20 03:49 33.93560 -118.38803 97 ft 21 kts 83°
2026-04-20 03:49 33.93576 -118.38637 101 ft 15 kts 83°
2026-04-20 03:50 33.93578 -118.38623 101 ft 0 kts 83°
2026-04-20 03:50 33.93584 -118.38564 98 ft 16 kts 83°
2026-04-20 03:50 33.93598 -118.38430 99 ft 16 kts 83°
2026-04-20 03:50 33.93618 -118.38315 99 ft 0 kts 54°
2026-04-20 03:51 33.93621 -118.38312 100 ft 2 kts 45°
2026-04-20 03:51 33.93623 -118.38310 100 ft 0 kts 39°
2026-04-20 03:51 33.93645 -118.38298 102 ft 9 kts 18°
2026-04-20 03:52 33.93723 -118.38320 104 ft 14 kts 296°
2026-04-20 03:52 33.93726 -118.38354 101 ft 0 kts 264°
2026-04-20 03:54 33.93720 -118.38410 102 ft 30 kts 263°
2026-04-20 03:55 33.93663 -118.38976 99 ft 103 kts 263°
2026-04-20 03:55 33.93547 -118.40070 103 ft 158 kts 262°
2026-04-20 03:55 33.93402 -118.41502 337 ft 181 kts 263°
2026-04-20 03:55 33.93242 -118.43038 886 ft 189 kts 262°
2026-04-20 03:56 33.93050 -118.44635 1443 ft 199 kts 262°
2026-04-20 03:56 33.92845 -118.46335 1850 ft 213 kts 253°
2026-04-20 03:56 33.91963 -118.47858 2099 ft 233 kts 222°
2026-04-20 03:56 33.90719 -118.49213 2539 ft 249 kts 224°
2026-04-20 03:57 33.89550 -118.50818 3180 ft 259 kts 230°
2026-04-20 03:57 33.88429 -118.52544 3969 ft 264 kts 230°
2026-04-20 03:57 33.87294 -118.54285 4705 ft 263 kts 229°
2026-04-20 03:57 33.85910 -118.55707 5005 ft 266 kts 202°
2026-04-20 03:58 33.84098 -118.56009 5059 ft 266 kts 168°
2026-04-20 03:58 33.82322 -118.55458 5671 ft 266 kts 166°
2026-04-20 03:58 33.80519 -118.54970 6539 ft 266 kts 168°
2026-04-20 03:58 33.78705 -118.54497 7313 ft 268 kts 168°
2026-04-20 03:59 33.76877 -118.54012 8094 ft 270 kts 168°
2026-04-20 03:59 33.75036 -118.53517 8906 ft 272 kts 168°
2026-04-20 03:59 33.73180 -118.53017 9678 ft 275 kts 168°
2026-04-20 03:59 33.71307 -118.52489 10305 ft 279 kts 163°
2026-04-20 04:00 33.69578 -118.51287 10514 ft 304 kts 135°
2026-04-20 04:00 33.68353 -118.49106 10708 ft 328 kts 120°
2026-04-20 04:00 33.67276 -118.46576 10899 ft 353 kts 119°
2026-04-20 04:00 33.66138 -118.43888 11347 ft 368 kts 119°
2026-04-20 04:01 33.64961 -118.41104 12046 ft 378 kts 119°
2026-04-20 04:01 33.63762 -118.38277 12922 ft 382 kts 119°
2026-04-20 04:01 33.62546 -118.35427 13845 ft 386 kts 120°
2026-04-20 04:01 33.61314 -118.32553 14631 ft 391 kts 120°
2026-04-20 04:02 33.60056 -118.29630 15039 ft 394 kts 120°
2026-04-20 04:02 33.58793 -118.26699 15017 ft 396 kts 120°
2026-04-20 04:02 33.57525 -118.23762 15024 ft 397 kts 120°
2026-04-20 04:02 33.56257 -118.20827 15017 ft 397 kts 120°
2026-04-20 04:03 33.54981 -118.17879 15319 ft 401 kts 120°
2026-04-20 04:03 33.53687 -118.14895 16138 ft 405 kts 119°
2026-04-20 04:03 33.52390 -118.11888 16921 ft 409 kts 119°
2026-04-20 04:03 33.51078 -118.08835 17652 ft 415 kts 119°
2026-04-20 04:04 33.49750 -118.05743 18363 ft 419 kts 119°
2026-04-20 04:04 33.48410 -118.02633 19097 ft 421 kts 119°
2026-04-20 04:04 33.47025 -117.99530 19675 ft 425 kts 123°
2026-04-20 04:04 33.45139 -117.96875 20055 ft 425 kts 140°
2026-04-20 04:05 33.42853 -117.94565 20499 ft 434 kts 141°
2026-04-20 04:05 33.40504 -117.92194 21106 ft 439 kts 141°
2026-04-20 04:05 33.38184 -117.89808 21697 ft 444 kts 140°
2026-04-20 04:05 33.35884 -117.87406 22276 ft 449 kts 140°
2026-04-20 04:06 33.33530 -117.84923 22853 ft 454 kts 140°
2026-04-20 04:06 33.31156 -117.82408 23416 ft 459 kts 139°
2026-04-20 04:06 33.28755 -117.79861 23906 ft 464 kts 139°
2026-04-20 04:06 33.26323 -117.77284 24391 ft 469 kts 139°
2026-04-20 04:07 33.23874 -117.74693 24888 ft 473 kts 139°
2026-04-20 04:07 33.21399 -117.72076 25369 ft 477 kts 139°
2026-04-20 04:07 33.14996 -117.63531 26634 ft 492 kts 111°
2026-04-20 04:07 33.10706 -117.47927 28454 ft 504 kts 108°
2026-04-20 04:08 33.03821 -117.24779 30747 ft 520 kts 108°
2026-04-20 04:08 32.94136 -116.92301 33972 ft 520 kts 109°
2026-04-20 04:08 32.84168 -116.59355 34976 ft 537 kts 110°
2026-04-20 04:08 32.72026 -116.27189 35007 ft 528 kts 121°
2026-04-20 04:09 32.58294 -115.96926 34829 ft 511 kts 118°
2026-04-20 04:09 32.45394 -115.67479 34752 ft 498 kts 119°
2026-04-20 04:09 32.32454 -115.38432 34917 ft 505 kts 120°
2026-04-20 04:09 32.19132 -115.08738 34948 ft 516 kts 120°
2026-04-20 04:10 31.92075 -114.49135 34765 ft 509 kts 121°
2026-04-20 04:10 31.65304 -113.91117 34899 ft 507 kts 122°
2026-04-20 04:11 31.51615 -113.61798 34968 ft 518 kts 122°
2026-04-20 04:11 31.37556 -113.32182 34854 ft 517 kts 127°
2026-04-20 04:11 31.17203 -113.10274 34829 ft 496 kts 144°
2026-04-20 04:11 30.96314 -112.89051 34892 ft 500 kts 143°
2026-04-20 04:12 30.54335 -112.46885 34892 ft 503 kts 144°
2026-04-20 04:12 30.11818 -112.04687 34900 ft 503 kts 144°
2026-04-20 04:13 29.69249 -111.62908 34918 ft 503 kts 145°
2026-04-20 04:13 29.26470 -111.21402 34824 ft 506 kts 146°
2026-04-20 04:14 28.85593 -110.76602 34826 ft 506 kts 140°
2026-04-20 04:14 28.46495 -110.31148 34885 ft 500 kts 141°